AEROCUBE 8D

Last updated on Wed Oct 29 2025 00:03:53 GMT+0000 (Coordinated Universal Time)

1 41852U 16067E 25301.53501780 .00011091 00000+0 51906-3 0 9995 2 41852 98.0954 149.3482 0002942 195.4873 164.6270 15.19935788490827
UTC large
Height (km)
Speed (km/s)
/
Latitude / Longitude
Inclination (degrees)
Orbital Period (minutes)
Azimuth
Elevation
Range (km)
Doppler Factor

Next 0 passes for location: London (51.5072 / 0.1276)

Sorry there are no passes over London.